Location: Karcze
(52.0945°N, 22.4786°E)
Time: 02:07:49
(UTC+00:00)

A-11 Canister half - Pass Details

Date: 01 August 2021
Orbit: 1514 x 1685 km, 47.2° (Epoch: 16 September)

Event Time Altitude Azimuth Distance (km) Brightness Sun altitude
Rises 23:05:56 0° 286° (WNW) 4,932 11.8 -19.8°
Reaches altitude 10° 23:10:47 10° 267° (W) 3,950 11.0 -19.7°
Maximum altitude 23:16:06 16° 234° (SW) 3,496 10.5 -19.6°
Enters shadow 23:16:46 16° 230° (SW) 3,502 10.4 -19.6°
Drops below altitude 10° 23:21:26 10° 202° (SSW) 3,934 - -19.5°
Sets 23:26:18 0° 182° (S) 4,901 - -19.3°
